Temp
66 60 56 64 65 67 63 60 60 67 74 69 67 68 72 79 77 77 82 80 82 83 86 84 82 84 81 78 75 76 74 71 74 69 69 69 71 71 72 73 78 79 80 78
62 57 66 68 67 67 66 63 62 68 74 67 68 69 72 76 76 79 77 81 82 83 81 83 80 81 80 78 77 76 79 73 76 74 74 71 71 71 73 73 74 76 78 79
59 67 75 72 68 69 63 63 64 66 69 68 65 64 66 75 75 76 73 75 81 83 82 82 81 77 79 78 76 76 77 76 75 71 69 69 70 70 71 72 73 74 77 78
63 72 73 69 69 69 59 70 70 70 61 55 65 52 60 68 72 70 67 71 71 83 80 78 76 73 74 73 76 73 73 71 75 72 74 76 78 78 82 83 80 74 75 77
67 70 68 68 72 74 69 71 69 68 58 54 60 54 58 66 65 66 71 74 74 75 76 76 75 75 75 75 74 72 70 69 70 72 71 68 70 69 70 68 72 73 72 74
70 76 75 73 77 76 77 68 63 57 54 49 56 55 54 57 64 69 73 75 76 76 76 76 77 78 76 76 75 74 71 67 68 68 69 69 67 67 65 66 69 70 73 76
67 69 73 79 68 72 67 55 46 47 47 48 58 55 53 65 70 71 71 73 74 75 75 75 74 73 71 71 71 76 71 68 68 68 68 68 67 67 66 65 65 65 68 71
57 57 69 77 71 66 62 59 48 43 44 50 59 52 58 69 74 74 73 73 74 73 73 72 72 70 71 71 71 72 71 70 73 68 69 68 68 67 67 65 66 66 66 68
56 60 75 80 78 74 61 57 62 52 48 48 52 58 69 68 70 71 71 71 69 71 72 70 71 70 69 68 66 67 66 66 67 66 66 67 67 67 67 68 69 71 70 68
65 57 71 78 77 73 66 70 56 50 43 41 51 53 53 60 64 67 66 65 65 68 69 69 68 66 66 66 66 67 66 65 65 65 64 66 66 69 69 69 68 68 69 70
66 59 64 69 62 60 63 58 57 54 50 45 43 49 61 60 64 65 67 67 64 64 65 66 65 65 65 66 65 65 66 66 66 66 65 64 63 64 64 64 64 67 67 67
61 56 56 60 67 72 65 60 55 48 49 48 48 48 60 60 62 63 65 66 66 65 66 65 64 64 65 64 65 64 64 65 65 65 63 63 64 64 64 62 62 64 64 67
61 53 49 57 60 65 62 65 61 54 49 48 46 47 63 62 62 63 61 63 64 64 62 62 62 62 63 64 64 65 65 64 65 64 63 62 62 62 62 63 64 62 62 64
62 53 51 48 52 57 56 62 62 54 47 49 50 52 54 57 58 59 59 60 59 59 60 59 59 60 61 62 62 63 64 64 63 63 62 61 63 61 60 62 61 62 65 62
58 51 53 55 60 60 59 61 60 55 55 51 53 51 53 54 55 56 58 60 60 60 60 60 59 58 58 59 60 61 60 61 60 60 60 60 61 60 62 60 62 64 64 65
55 48 51 52 60 59 57 60 60 60 59 56 54 51 55 56 57 57 57 58 57 58 60 59 60 60 59 59 60 60 60 60 60 60 60 62 61 60 59 61 59 60 61 63
53 50 46 44 54 55 49 56 59 54 55 55 49 51 54 53 54 52 53 56 57 58 58 57 57 57 56 57 59 57 58 60 59 58 61 62 61 61 60 59 59 60 60 61
51 48 45 42 46 37 52 60 60 54 55 56 54 53 54 53 53 54 56 54 55 56 56 56 55 55 55 56 57 57 59 59 60 61 61 62 62 61 61 57 58 58 59 60
57 48 43 41 38 48 55 56 55 51 47 54 51 53 54 57 52 50 57 56 53 53 54 55 55 55 54 54 56 58 58 59 60 60 60 61 61 60 60 59 58 58 56 58
55 53 47 40 38 37 49 58 62 56 40 53 53 51 51 51 42 46 53 55 53 53 54 54 55 55 54 56 55 55 56 57 57 58 59 60 60 59 58 59 58 59 56 56
45 45 44 39 40 45 55 59 61 45 42 52 52 50 49 45 47 51 53 52 52 52 53 54 53 52 53 54 53 54 54 53 55 57 57 58 58 58 58 58 59 58 58 57
46 42 41 41 37 39 58 58 50 48 49 52 51 51 50 49 51 53 52 51 52 51 53 54 52 52 53 53 53 51 50 53 55 56 56 56 56 57 58 57 57 57 56 55
45 47 45 46 44 51 51 52 52 52 51 51 51 51 50 49 50 52 50 48 51 51 51 53 51 51 51 51 50 49 54 56 56 55 56 58 59 57 57 55 55 55 56 53
51 52 46 47 50 49 52 53 54 54 52 53 54 52 51 48 51 50 50 49 49 50 51 55 55 52 49 50 52 55 56 55 54 53 53 54 56 53 54 55 54 53 53 53
50 51 48 43 48 52 53 53 54 54 55 55 53 52 51 50 48 48 48 48 49 49 51 50 49 49 49 50 51 54 57 55 53 53 53 53 54 52 52 52 50 50 52 51
52 50 44 42 49 47 48 52 55 53 53 53 51 51 52 51 48 48 47 47 48 49 49 49 48 48 49 49 49 51 53 55 52 51 53 52 51 51 52 49 51 49 46 46
MSLP
1009.41 1010.42 1010.76 1010.49 1010.63 1010.16 1010.17 1010.19 1009.69 1008.50 1007.44 1007.12 1006.57 1005.85 1005.46 1006.20 1006.40 1006.65 1007.16 1007.18 1007.04 1007.07 1007.40 1008.30 1009.03 1009.58 1010.60 1011.42 1012.14 1012.69 1013.56 1014.22 1014.85 1015.60 1016.25 1016.69 1016.85 1016.92 1017.15 1017.17 1017.03 1017.18 1017.50 1017.93
1010.19 1010.22 1009.66 1009.91 1010.16 1010.19 1010.02 1009.91 1009.46 1008.37 1007.32 1007.06 1006.81 1006.35 1005.65 1005.26 1005.26 1005.37 1005.67 1006.32 1006.49 1006.88 1007.61 1008.20 1008.86 1009.59 1010.34 1011.19 1011.91 1012.45 1012.79 1013.47 1013.94 1014.56 1015.17 1015.65 1015.99 1016.23 1016.48 1016.56 1016.94 1016.95 1017.01 1017.10
1009.87 1008.71 1008.57 1009.39 1009.28 1009.41 1008.95 1009.06 1008.65 1008.40 1007.60 1007.37 1007.33 1007.35 1006.74 1005.64 1005.44 1004.99 1005.69 1005.34 1005.81 1006.40 1006.97 1007.86 1008.89 1009.92 1010.50 1011.45 1011.80 1012.02 1012.32 1013.13 1013.97 1014.47 1014.91 1015.34 1015.76 1016.01 1016.20 1016.23 1016.38 1016.44 1016.38 1016.54
1009.20 1007.74 1008.09 1008.29 1008.29 1008.15 1008.10 1007.83 1008.00 1008.22 1008.61 1008.79 1008.43 1009.01 1007.62 1006.96 1006.24 1006.78 1006.66 1006.06 1005.81 1006.17 1007.07 1008.32 1009.11 1010.09 1010.61 1011.13 1011.25 1012.09 1012.73 1012.88 1013.30 1014.05 1014.48 1014.70 1014.75 1014.89 1014.73 1014.98 1015.46 1015.67 1015.74 1015.84
1007.99 1007.45 1007.41 1007.32 1006.72 1006.73 1007.24 1007.37 1008.08 1008.53 1009.27 1009.68 1009.59 1009.79 1007.93 1007.83 1007.91 1008.14 1007.71 1007.10 1007.08 1007.39 1008.18 1008.96 1009.90 1010.73 1011.56 1011.83 1012.28 1012.72 1013.12 1013.29 1013.72 1014.41 1014.57 1015.08 1015.37 1015.82 1015.56 1015.74 1015.58 1015.52 1015.44 1015.41
1007.61 1006.78 1006.30 1005.69 1005.72 1006.07 1006.59 1007.87 1009.00 1009.90 1010.46 1011.30 1010.42 1010.51 1010.38 1009.71 1009.21 1008.73 1008.51 1008.63 1008.49 1008.94 1009.66 1010.26 1010.90 1011.37 1012.28 1012.63 1012.77 1012.70 1013.28 1014.35 1014.26 1014.58 1014.90 1015.09 1015.49 1015.59 1016.18 1016.36 1016.28 1015.70 1015.41 1015.27
1007.33 1006.39 1005.69 1005.30 1005.59 1006.08 1007.18 1009.17 1010.88 1012.03 1012.37 1011.99 1011.03 1011.36 1012.22 1011.01 1010.01 1010.21 1009.41 1010.07 1010.31 1010.56 1011.02 1011.51 1012.05 1012.89 1013.55 1013.80 1013.68 1013.66 1014.16 1014.61 1014.81 1015.15 1015.32 1015.45 1015.77 1015.75 1016.09 1016.31 1016.11 1015.93 1015.59 1014.77
1007.90 1006.64 1005.31 1005.11 1005.47 1006.50 1007.63 1009.07 1011.00 1012.43 1013.14 1012.32 1011.29 1012.01 1012.43 1011.54 1010.94 1010.64 1010.86 1011.70 1011.76 1012.05 1012.56 1013.16 1013.76 1014.24 1014.66 1014.85 1014.79 1014.80 1014.97 1015.41 1015.81 1016.00 1015.77 1015.42 1015.41 1015.71 1015.74 1015.91 1015.73 1015.60 1015.25 1014.33
1007.63 1006.76 1004.80 1004.52 1005.14 1006.09 1007.66 1009.01 1009.78 1011.54 1012.74 1012.90 1012.56 1012.61 1012.17 1012.17 1012.04 1011.82 1012.06 1012.68 1013.50 1013.67 1013.91 1014.56 1014.80 1015.20 1015.40 1015.64 1015.94 1015.83 1015.94 1016.13 1016.35 1016.54 1016.61 1016.36 1016.07 1015.84 1015.60 1015.26 1015.02 1014.62 1014.36 1014.33
1007.26 1007.11 1006.20 1005.23 1005.43 1006.41 1007.00 1008.08 1009.90 1011.84 1013.11 1013.57 1013.21 1012.85 1012.58 1012.91 1013.00 1013.13 1013.67 1013.82 1014.45 1014.83 1014.76 1015.72 1015.81 1016.21 1016.33 1016.33 1016.16 1016.02 1016.16 1016.34 1016.61 1016.66 1016.57 1016.31 1016.05 1015.79 1015.71 1015.55 1015.17 1014.69 1014.34 1013.92
1007.11 1007.70 1007.60 1006.63 1007.38 1007.57 1007.86 1008.59 1010.06 1011.59 1012.88 1013.68 1014.06 1013.54 1012.80 1013.53 1013.57 1013.65 1014.19 1014.66 1015.04 1015.45 1015.77 1016.40 1016.60 1016.80 1016.88 1016.84 1016.86 1016.78 1016.63 1016.62 1016.59 1016.33 1016.10 1015.97 1015.89 1015.69 1015.37 1015.07 1014.72 1014.45 1014.07 1013.79
1007.81 1008.67 1008.99 1008.42 1007.98 1007.66 1008.20 1009.01 1010.13 1012.03 1013.44 1013.70 1013.85 1014.56 1013.95 1014.22 1014.18 1014.30 1015.02 1015.32 1015.74 1016.23 1016.64 1016.75 1016.89 1017.02 1016.99 1016.80 1016.60 1016.66 1016.65 1016.68 1016.54 1016.24 1016.18 1016.03 1015.67 1015.26 1014.78 1014.60 1014.22 1013.87 1013.58 1013.24
1008.43 1009.54 1010.15 1009.47 1009.38 1008.68 1009.15 1009.70 1010.19 1011.48 1012.63 1013.73 1014.38 1015.48 1015.14 1015.36 1015.35 1015.73 1015.97 1016.36 1016.70 1016.85 1016.95 1017.31 1017.35 1017.56 1017.39 1017.30 1017.03 1016.84 1016.68 1016.58 1016.30 1016.18 1016.09 1015.86 1015.56 1015.19 1014.83 1014.28 1013.52 1013.05 1012.84 1012.61
1008.73 1010.62 1010.97 1010.98 1010.81 1010.39 1010.22 1010.36 1010.82 1011.91 1013.05 1013.56 1014.03 1015.31 1016.34 1016.51 1016.39 1016.62 1016.99 1017.20 1017.46 1017.58 1017.72 1017.86 1017.86 1017.78 1017.79 1017.79 1017.74 1017.52 1017.22 1016.98 1016.71 1016.51 1016.40 1016.12 1015.58 1015.09 1014.67 1014.08 1013.57 1013.00 1012.22 1011.95
1010.29 1011.82 1011.94 1011.90 1011.67 1011.15 1010.98 1010.83 1011.13 1012.13 1012.76 1013.55 1014.45 1015.65 1016.89 1017.21 1017.31 1017.48 1017.50 1017.58 1017.63 1017.75 1017.76 1017.86 1018.13 1018.32 1018.32 1018.32 1018.02 1017.74 1017.51 1017.20 1016.78 1016.46 1016.10 1015.75 1015.09 1014.56 1014.23 1013.85 1013.43 1012.89 1012.43 1011.65
1011.58 1012.74 1012.90 1012.92 1012.32 1011.95 1011.47 1011.21 1011.45 1012.25 1012.93 1013.60 1014.78 1016.57 1017.22 1017.70 1017.79 1018.02 1018.18 1018.19 1018.33 1018.42 1018.48 1018.51 1018.31 1018.32 1018.43 1018.40 1018.18 1017.88 1017.44 1016.96 1016.49 1016.20 1015.83 1015.24 1014.70 1014.25 1013.90 1013.41 1013.05 1012.63 1012.17 1011.52
1012.24 1013.21 1014.16 1014.22 1013.62 1012.95 1012.63 1011.86 1011.88 1013.24 1013.94 1014.09 1015.39 1016.40 1017.47 1018.17 1018.44 1018.78 1018.80 1018.71 1018.79 1018.86 1018.97 1019.16 1019.28 1019.24 1019.08 1018.77 1018.27 1017.86 1017.27 1016.71 1016.32 1015.89 1015.33 1014.83 1014.35 1013.97 1013.45 1012.94 1012.45 1012.03 1011.52 1010.91
1012.85 1013.81 1014.83 1015.46 1014.77 1014.42 1013.40 1012.43 1012.42 1014.14 1015.44 1015.60 1016.14 1017.36 1017.78 1018.35 1019.04 1019.24 1019.39 1019.65 1019.79 1019.73 1019.75 1019.79 1019.69 1019.43 1019.01 1018.49 1018.06 1017.53 1017.02 1016.49 1016.00 1015.45 1014.85 1014.30 1013.87 1013.41 1012.88 1012.55 1012.04 1011.50 1010.93 1010.45
1012.56 1014.07 1015.77 1016.15 1015.97 1014.86 1013.55 1013.71 1013.88 1014.50 1017.13 1017.32 1017.67 1018.22 1018.43 1018.87 1019.22 1019.89 1019.84 1019.77 1019.77 1019.86 1019.95 1019.80 1019.42 1019.05 1018.61 1018.24 1017.80 1017.38 1016.84 1016.30 1015.74 1015.11 1014.50 1013.94 1013.39 1012.75 1012.25 1011.78 1011.29 1010.76 1010.17 1009.64
1013.18 1013.57 1015.18 1016.51 1016.47 1015.57 1014.21 1013.93 1014.06 1014.85 1017.48 1018.09 1018.36 1018.99 1019.22 1019.29 1019.97 1020.20 1019.89 1019.89 1019.99 1019.82 1019.66 1019.31 1019.00 1018.78 1018.41 1017.92 1017.54 1017.24 1016.75 1016.11 1015.51 1014.99 1014.30 1013.56 1012.91 1012.30 1011.68 1011.13 1010.58 1009.97 1009.52 1008.89
1014.33 1015.12 1015.53 1016.20 1016.16 1015.11 1014.28 1014.04 1013.99 1015.74 1017.85 1018.33 1018.65 1019.24 1019.57 1020.03 1020.21 1020.01 1019.75 1019.76 1019.70 1019.57 1019.35 1019.14 1018.98 1018.92 1018.43 1018.03 1017.76 1017.35 1016.80 1016.44 1015.99 1015.26 1014.40 1013.63 1012.89 1012.06 1011.25 1010.59 1009.94 1009.31 1008.78 1008.15
1014.05 1014.92 1015.76 1016.29 1016.34 1015.32 1014.27 1014.62 1015.34 1016.85 1017.58 1018.04 1018.48 1018.82 1019.01 1019.20 1019.33 1019.31 1019.44 1019.50 1019.45 1019.46 1019.36 1019.21 1019.17 1018.94 1018.48 1018.32 1017.95 1017.59 1017.22 1016.64 1015.83 1015.03 1014.35 1013.52 1012.69 1011.82 1010.93 1010.29 1009.58 1008.94 1008.28 1007.48
1014.00 1013.93 1014.63 1015.49 1015.40 1015.04 1014.99 1015.35 1016.06 1016.57 1017.33 1017.90 1018.18 1018.40 1018.56 1018.93 1019.21 1019.36 1019.57 1019.72 1019.74 1019.63 1019.44 1019.14 1019.10 1018.88 1018.67 1018.34 1018.01 1017.61 1016.95 1016.22 1015.57 1014.84 1014.02 1013.13 1012.09 1011.41 1010.79 1010.17 1009.40 1008.74 1007.98 1007.21
1013.87 1013.74 1014.68 1015.26 1016.12 1016.18 1016.13 1016.43 1016.63 1016.92 1017.44 1017.75 1017.98 1018.28 1018.61 1019.06 1019.24 1019.51 1019.83 1020.00 1019.94 1019.64 1019.35 1019.13 1019.01 1019.00 1018.78 1018.19 1017.84 1017.31 1016.70 1016.15 1015.51 1014.62 1013.84 1013.10 1012.20 1011.52 1010.84 1010.17 1009.61 1008.82 1007.92 1006.91
1014.39 1014.23 1015.06 1016.64 1016.90 1017.00 1017.19 1017.09 1017.14 1017.38 1017.54 1017.72 1017.87 1018.09 1018.44 1018.92 1019.42 1019.73 1020.00 1019.92 1019.74 1019.57 1019.38 1019.26 1019.22 1019.05 1018.65 1018.24 1017.85 1017.22 1016.43 1015.87 1015.37 1014.67 1013.85 1013.05 1012.42 1011.70 1010.98 1010.46 1009.80 1009.01 1008.33 1007.49
1014.30 1014.45 1015.26 1016.21 1016.39 1016.61 1017.23 1017.22 1017.19 1017.40 1017.51 1017.64 1017.81 1018.04 1018.54 1018.92 1019.49 1019.68 1019.82 1019.69 1019.52 1019.41 1019.32 1019.24 1019.10 1018.94 1018.61 1018.28 1017.85 1017.24 1016.59 1015.95 1015.32 1014.63 1013.77 1013.00 1012.43 1011.71 1010.95 1010.17 1009.32 1008.92 1008.13 1007.09
Wind_Speed
2 5 6 12 10 9 4 0 4 7 7 3 5 3 2 11 9 10 15 15 19 20 15 12 10 14 13 11 13 14 11 9 9 4 4 3 4 3 3 5 10 10 11 13
6 8 13 4 3 5 7 6 6 8 7 2 6 5 6 4 7 10 13 21 21 14 10 12 11 13 16 14 14 14 16 13 12 9 5 3 4 3 2 2 5 7 9 12
7 9 7 7 6 6 5 7 6 8 5 4 2 8 6 9 5 5 8 6 14 20 18 16 13 9 11 11 13 15 16 13 9 6 4 3 3 1 1 4 4 7 10 11
7 9 7 6 7 9 3 4 2 5 2 3 4 6 6 7 10 10 5 9 3 20 9 9 10 8 10 9 10 8 7 10 10 10 9 12 11 12 12 11 7 5 9 12
10 5 7 6 8 4 8 2 3 1 3 4 7 4 10 6 8 6 9 16 16 12 12 11 11 11 7 6 4 5 6 5 2 5 4 5 6 4 3 2 5 6 6 8
10 5 5 7 4 5 5 5 8 5 3 5 6 6 6 8 6 9 15 16 20 21 19 18 16 18 13 10 9 3 7 3 3 3 2 2 3 5 2 4 5 5 5 6
7 6 5 4 2 6 7 8 5 6 5 7 4 8 4 7 13 11 19 17 17 17 17 17 17 15 13 13 12 16 12 5 3 6 5 4 4 5 5 5 6 5 5 5
2 9 4 3 7 8 6 10 8 5 3 6 4 6 3 5 15 17 17 15 17 18 16 17 16 12 12 13 13 15 14 13 15 10 11 10 5 2 3 6 7 8 7 8
4 6 9 13 5 9 2 3 7 7 1 3 2 4 5 4 14 17 17 17 15 17 17 15 13 11 10 9 8 9 9 8 8 5 2 5 4 4 4 6 5 8 9 8
6 1 5 5 7 5 4 5 3 3 4 3 4 3 7 5 12 14 14 13 9 11 15 12 12 9 7 7 7 9 8 6 3 3 3 1 2 3 4 4 7 7 7 7
5 4 6 5 3 0 6 5 6 6 5 6 2 5 3 5 8 13 11 9 8 8 10 10 8 7 7 6 7 7 8 7 7 7 7 6 4 4 6 5 5 6 6 7
1 6 3 4 2 3 3 2 5 7 3 0 5 4 5 6 7 9 13 13 12 14 13 10 8 7 8 7 7 7 6 6 6 5 4 5 6 9 9 6 7 6 7 6
0 3 3 9 8 8 5 5 4 5 4 4 6 4 2 3 10 7 9 10 11 11 10 8 8 7 7 7 7 8 8 7 7 7 7 7 7 7 8 10 12 7 7 7
7 4 6 7 4 3 3 5 4 5 4 4 4 10 4 4 8 8 10 9 8 7 7 6 7 6 6 6 6 6 7 8 7 7 7 8 11 9 8 9 9 9 12 9
6 4 2 1 1 1 1 5 2 3 4 4 5 8 7 5 7 7 7 7 9 8 8 7 7 6 6 6 6 6 4 5 4 6 6 8 8 7 8 8 9 11 13 14
3 2 2 6 6 7 5 7 6 5 2 3 14 10 5 4 8 8 7 7 7 6 7 8 10 10 9 9 8 6 6 7 6 7 7 8 8 7 8 9 7 8 11 13
4 5 3 1 5 5 5 6 5 7 4 3 7 8 5 8 10 6 7 8 8 8 8 9 8 7 6 7 6 7 7 7 7 7 8 9 9 10 10 8 9 12 12 12
4 5 3 2 5 2 5 8 15 17 9 12 15 7 6 9 6 7 7 7 7 5 4 5 5 5 7 6 8 7 7 7 8 11 10 11 12 12 11 8 11 11 11 13
6 6 3 5 4 5 1 2 1 5 2 3 8 6 5 7 6 4 6 3 2 3 3 5 6 5 6 7 7 9 10 10 11 12 13 13 13 14 13 13 13 12 11 12
5 6 7 3 5 7 5 3 3 5 4 3 8 6 5 4 2 4 4 3 3 3 3 6 7 5 7 8 7 8 10 11 13 15 16 14 15 15 15 15 14 13 11 13
3 2 7 3 4 6 4 3 1 5 6 7 8 7 5 4 5 7 5 4 2 3 6 7 7 6 7 7 7 10 11 11 13 14 15 15 15 15 14 13 13 13 14 14
8 7 4 3 2 8 6 4 3 6 4 8 6 6 5 2 3 4 4 5 7 7 7 7 6 7 7 7 8 9 10 12 13 14 16 14 14 13 12 14 13 14 14 14
1 6 7 7 6 2 4 7 5 8 8 5 6 3 2 3 4 6 2 1 3 4 6 5 5 6 6 6 5 8 12 13 14 15 15 15 14 12 12 12 13 12 12 11
6 1 5 5 4 5 10 6 6 6 7 7 5 3 2 0 5 1 3 1 4 4 4 5 6 7 6 6 7 8 11 12 14 14 13 13 12 12 11 9 10 10 12 12
5 3 4 5 7 9 4 5 6 7 6 5 3 2 0 3 4 5 1 2 4 4 4 4 4 5 6 7 9 10 13 11 12 12 11 10 10 10 10 10 9 10 12 13
2 5 5 6 6 5 5 6 7 6 5 5 3 1 4 7 6 4 1 2 2 2 3 4 5 6 6 6 7 8 10 12 11 11 10 8 8 8 10 10 11 12 16 21
Wind_Direction
315 79 200 212 190 214 220 314 282 269 264 268 300 298 249 165 181 179 200 197 194 205 189 185 176 171 165 151 159 169 158 171 157 145 160 182 196 176 187 192 199 200 185 188
15 230 227 232 263 246 240 253 265 278 273 61 329 307 293 249 204 205 180 198 201 189 178 184 171 167 167 168 167 172 182 171 180 172 176 158 164 206 171 173 192 203 204 200
172 238 196 186 255 253 226 185 223 230 324 327 329 328 331 302 297 272 51 157 181 184 186 185 170 159 158 167 180 180 185 181 182 168 126 101 73 35 170 212 203 201 201 205
221 265 224 228 227 177 184 214 298 333 33 240 42 271 294 294 305 56 39 54 119 186 164 130 135 130 142 167 177 187 184 180 180 179 181 199 205 207 219 223 229 214 197 203
252 298 223 227 203 153 228 202 244 205 62 64 322 42 270 348 23 95 80 75 66 74 89 99 92 87 69 85 75 86 124 179 150 185 223 199 235 275 354 333 246 242 227 212
248 240 232 210 178 175 141 64 39 43 58 10 257 132 334 340 138 121 84 76 79 84 83 81 81 80 70 58 50 230 153 93 90 105 46 183 220 239 263 278 274 254 251 236
325 296 279 220 103 17 78 59 4 358 15 224 67 67 299 352 66 79 93 81 79 82 86 83 77 72 60 52 46 54 71 37 87 54 4 299 252 271 251 240 255 259 260 242
227 323 190 204 165 178 182 144 151 188 201 257 5 137 144 97 82 84 78 83 81 81 81 79 79 75 72 62 58 62 58 62 66 39 27 10 344 301 260 241 246 248 245 257
190 267 283 158 145 126 194 179 181 106 319 73 182 61 50 106 88 83 86 86 81 86 88 91 83 71 59 63 65 75 76 66 69 87 40 14 20 349 349 334 292 268 259 253
219 277 334 29 62 22 136 173 68 8 126 181 276 181 187 160 111 100 97 90 89 93 95 99 99 101 87 65 44 51 52 63 68 100 144 184 277 283 269 277 305 321 306 279
154 109 295 40 80 202 351 357 60 115 115 157 154 270 214 150 125 111 108 102 94 69 73 72 65 59 70 74 69 53 37 32 19 3 344 343 330 304 310 304 288 281 290 299
23 132 137 206 261 244 165 9 117 113 240 75 138 289 356 146 120 93 87 90 79 81 86 75 68 57 43 35 28 25 23 26 350 335 345 332 327 329 320 280 274 275 279 283
254 26 51 342 357 4 48 16 49 101 84 196 137 193 27 67 80 77 100 79 87 82 71 62 53 42 32 18 9 2 355 341 330 343 334 319 311 304 294 303 306 299 287 278
89 82 140 182 180 209 334 331 63 97 103 209 201 133 43 76 91 72 80 90 93 89 85 76 48 32 19 5 349 330 330 344 342 338 327 316 314 303 293 291 286 295 301 282
82 95 60 99 154 343 269 296 346 141 182 153 150 127 182 173 106 105 105 80 63 49 39 31 28 19 11 4 342 346 335 317 312 322 311 297 293 296 302 299 295 301 299 289
14 172 101 355 20 22 324 297 295 258 151 128 112 108 182 134 109 85 72 71 61 43 30 26 24 13 12 360 344 339 320 312 304 297 290 296 288 286 289 293 294 309 301 299
102 117 78 245 351 21 329 275 227 78 8 179 154 159 173 91 90 78 62 48 39 33 24 18 8 357 339 322 307 299 296 292 290 282 293 302 293 294 291 281 298 301 299 298
114 93 101 174 46 317 252 16 101 95 52 60 87 100 100 117 110 89 69 68 49 32 25 350 313 296 288 289 296 288 296 296 295 308 303 307 307 295 288 278 284 285 288 294
146 117 111 144 177 276 4 86 272 137 24 43 88 73 47 123 131 91 84 114 182 239 236 244 260 267 288 298 291 316 318 315 318 316 313 309 307 303 297 296 290 281 283 285
60 99 124 150 159 214 224 147 123 133 133 127 108 92 81 49 74 279 311 275 37 42 317 321 321 310 325 318 325 331 326 326 330 329 320 314 309 304 296 293 293 286 280 275
110 30 163 151 197 275 171 292 64 144 191 134 126 132 113 121 194 227 270 37 34 1 344 334 329 318 306 321 336 336 334 335 325 319 317 318 312 307 300 297 298 297 292 287
165 149 189 99 124 274 175 49 154 169 104 139 125 140 120 164 305 309 4 24 13 355 337 326 330 323 327 356 350 340 335 322 314 317 318 314 312 310 307 305 302 300 294 289
141 174 181 167 208 238 28 127 118 131 128 130 116 131 106 358 313 314 153 35 324 310 313 312 326 326 353 332 340 334 332 326 322 318 318 326 322 317 315 310 309 308 303 298
328 73 91 78 11 67 95 79 101 115 118 131 145 144 101 241 318 155 125 339 319 331 341 351 11 0 324 325 335 324 329 330 325 320 319 315 321 322 317 321 321 317 314 310
213 48 102 60 87 86 58 108 127 113 123 120 111 159 163 91 91 101 96 319 314 334 2 23 1 320 317 335 326 320 337 330 325 321 317 316 332 325 324 331 319 319 317 310
201 173 146 201 195 137 173 164 142 137 157 166 152 325 65 129 135 121 61 295 289 33 10 349 331 313 311 316 305 312 328 329 328 328 329 326 323 323 335 327 328 323 317 316